Location: Alwernia
(50.0653°N, 19.5400°E)
Time: 10:23:59
(UTC+00:00)

Daily predictions for brighter satellites

Satellite Brightness Start Highest point End
(mag) Time Altitude Azimuth Time Altitude Azimuth Time Altitude Azimuth
NOSS 0 Rocket 4.0 18:10:19 10° NNW 18:16:34 72° ENE 18:22:47 10° SE
Cosmos 2058 Rocket 3.0 18:14:12 10° S 18:18:32 69° E 18:22:52 10° NNE
Cosmos 2251 Rocket 3.7 18:16:24 10° S 18:21:35 53° ESE 18:26:47 10° NNE
SL-4 R/B 3.9 18:19:16 10° SSE 18:21:40 14° SE 18:24:08 10° E
Ariane Rocket 3.1 18:17:55 10° SSE 18:22:54 62° ENE 18:27:54 10° N
Cosmos 389 Rocket 3.6 18:19:59 10° SSE 18:22:57 25° E 18:25:57 10° NE
COSMOS 2428 3.2 18:20:14 10° NNW 18:25:57 66° WSW 18:31:37 10° SSE
Meteor 2-1 Rocket 4.5 18:20:17 10° S 18:25:59 57° E 18:31:47 10° NNE
Cosmos 2219 Rocket 2.9 18:20:44 10° NW 18:26:18 56° WSW 18:31:49 10° S
CZ-4C R/B 3.6 18:21:46 10° WSW 18:26:47 42° NNW 18:32:53 10° NE
ATLAS 5 CENTAUR R/B 3.9 18:23:46 10° W 18:27:21 25° NNW 18:31:23 10° NNE
ATLAS 3B R/B 3.1 18:21:24 10° NW 18:28:23 71° SW 18:35:38 10° SSE
Cosmos 614 Rocket 4.2 18:24:35 10° S 18:29:27 45° ESE 18:34:18 10° NE
Cosmos 1455 2.1 18:25:49 10° S 18:29:33 86° E 18:33:18 10° N
Meteor 2-10 Rocket 4.0 18:26:04 10° SSW 18:31:22 71° WNW 18:36:56 10° N
BREEZE-M DEB (TANK) 3.5 18:30:34 10° WSW 18:34:19 74° SSE 18:47:22 10° E
COSMOS 2487 3.8 18:32:15 10° SW 18:35:29 43° WNW 18:38:47 10° N
Cosmos 1092 Rocket 4.3 18:29:15 10° NNW 18:35:30 72° W 18:41:38 10° S
SPOT 3 Rocket 4.0 18:31:32 10° SE 18:36:27 45° ENE 18:41:22 10° N
FALCON 9 DEB 3.0 18:35:20 10° WSW 18:38:43 70° SSE 18:42:09 10° ENE
USA 215 3.6 18:32:20 10° E 18:38:48 63° NNE 18:45:15 10° WNW
BREEZE-M DEB (TANK) 1.6 18:36:51 10° W 18:39:25 67° S 18:41:22 13° ESE
RESURS DK-1 2.4 18:35:54 10° SSW 18:40:01 84° WNW 18:44:12 10° NNE
Terra 3.9 18:42:47 10° E 18:45:00 13° NE 18:47:13 10° NNE
Resurs 01 Rocket 1.8 18:45:22 10° SSE 18:49:43 56° ENE 18:54:06 10° N
FALCON 9 DEB 4.3 18:48:46 10° S 18:50:58 18° SE 18:51:44 17° ESE
Resurs 1-3 3.7 18:49:33 10° SSE 18:53:56 84° WSW 18:58:22 10° NNW
BREEZE-M DEB (TANK) 4.1 18:49:53 10° WSW 18:54:19 88° NNW 19:12:50 10° ENE
Cosmos 405 Rocket 2.9 18:50:22 10° NNW 18:54:23 78° W 18:58:18 10° S
ERS-1 Rocket 4.4 18:54:05 13° ESE 18:57:23 23° ENE 19:01:18 10° N
Cosmos 2237 Rocket 2.2 18:52:10 10° NNW 18:57:51 89° ENE 19:03:02 12° SSE
Cosmos 2058 4.0 18:56:35 10° NNW 19:00:36 45° W 19:04:34 10° SSW
Cosmos 407 Rocket 3.6 18:59:44 10° S 19:04:39 49° ESE 19:09:39 10° NNE
IRIDIUM 104 4.3 18:59:31 10° S 19:04:42 70° E 19:09:54 10° N
Cosmos 1356 4.3 19:05:38 10° NNW 19:08:58 49° W 19:12:16 10° S
Cosmos 2279 Rocket 4.0 19:03:49 10° S 19:10:01 85° E 19:16:15 10° N
OBJECT-B 3.0 19:07:49 10° SSW 19:10:33 25° W 19:13:18 10° NW
FALCON 9 DEB 4.2 19:08:53 10° SSW 19:10:44 21° SSE 19:10:44 21° SSE
Cosmos 1825 4.1 19:08:57 10° NNW 19:12:14 29° W 19:15:31 10° SSW
IRIDIUM 114 4.3 19:08:37 10° S 19:13:50 83° E 19:19:05 10° N
Cosmos 2227 Rocket 2.5 19:09:31 10° S 19:14:51 44° ESE 19:20:12 10° NE
Lacrosse 5 rocket 3.0 19:11:38 10° WNW 19:15:25 32° N 19:19:24 10° ENE
BREEZE-M DEB (TANK) 3.8 19:11:25 10° WSW 19:15:48 58° S 19:20:52 14° ESE
Landsat 7 3.8 19:12:08 15° SSE 19:16:04 76° ENE 19:20:50 10° N
Cosmos 2084 Rocket 3.9 19:12:35 10° S 19:16:08 32° ESE 19:19:47 10° ENE
Cosmos 482 Debris 3.6 19:14:35 10° WNW 19:16:48 43° N 19:17:31 28° NE
Cosmos 909 Rocket 4.2 19:14:08 10° SW 19:20:26 82° NW 19:27:04 10° NE
Cosmos 1140 Rocket 3.5 19:15:49 10° S 19:20:50 59° ESE 19:25:54 10° NNE
Cosmos 1818 4.0 19:15:26 10° SW 19:20:50 65° NW 19:26:19 10° NE
Cosmos 1869 4.3 19:20:14 24° ESE 19:21:20 27° E 19:24:42 10° NNE
Cosmos 2297 Rocket 2.2 19:16:04 10° SSW 19:21:37 62° ESE 19:27:13 10° NE
Meteor 2-21 Rocket 4.4 19:16:44 10° N 19:22:49 74° ENE 19:27:43 16° SSE
IRIDIUM 103 4.4 19:17:46 10° S 19:22:59 84° W 19:28:15 10° N
Cosmos-2242 3.0 19:24:16 15° S 19:27:40 60° E 19:31:55 10° NNE
Cosmos 44 4.4 19:23:20 10° WSW 19:28:25 51° NW 19:33:43 10° NE
Cosmos 2219 3.1 19:23:36 10° SSW 19:29:08 64° ESE 19:34:43 10° NE
Cosmos 2151 3.1 19:27:42 10° NNW 19:32:01 74° W 19:35:15 17° S
Spot 2 Rocket 3.6 19:29:22 23° SE 19:32:28 61° ENE 19:37:29 10° N
Genesis I 3.5 19:28:33 10° NW 19:32:31 63° SW 19:34:32 27° SSE
Cosmos 2266 Rocket 4.0 19:26:44 10° N 19:33:10 84° E 19:38:12 17° S
Meteor 2-16 Rocket 4.4 19:27:46 10° N 19:33:58 76° ENE 19:38:25 20° SSE
Cosmos 1633 3.1 19:31:57 10° NNW 19:35:29 56° W 19:37:56 18° S
Cosmos 44 Rocket 4.1 19:37:36 27° SE 19:38:59 31° ESE 19:43:30 10° NE
Cosmos 1408 Rocket 4.5 19:36:07 10° N 19:40:02 32° ENE 19:41:17 27° ESE
ARIANE 5 R/B 2.6 19:41:00 30° SSE 19:43:07 69° ENE 19:47:29 10° N
Meteor 1-4 Rocket 2.9 19:44:56 40° ESE 19:45:09 40° E 19:48:30 10° NNE
COSMOS 2455 3.2 19:40:27 10° S 19:45:59 43° ESE 19:51:37 10° NE
Cosmos 468 Rocket 4.3 19:42:19 10° NNW 19:47:21 52° ENE 19:49:37 30° ESE
USA 245 2.9 19:46:18 35° S 19:47:40 83° WSW 19:50:45 10° NNW
ATLAS 2AS CENTAUR R/B 4.2 19:40:35 10° WSW 19:48:06 45° NNW 19:55:23 10° NE
CZ-2C R/B 3.6 19:45:37 10° NNE 19:50:06 88° W 19:53:53 14° SSW
IGS 5A 4.4 19:47:40 15° SSW 19:50:46 43° W 19:54:46 10° NNW
Cosmos 2221 3.6 19:52:59 27° E 19:53:04 27° E 19:56:40 10° NNE
SL-16 R/B 2.2 19:48:24 10° NNW 19:54:08 89° ENE 19:56:59 31° SSE
Timation 2 Rocket 4.0 19:52:19 10° SSW 19:58:53 86° ESE 20:05:12 10° NNE
SL-4 R/B 2.3 19:56:10 10° SW 20:00:30 53° SSE 20:03:01 25° E
Timation 1 Rocket 4.4 19:56:23 15° S 20:01:17 56° ESE 20:07:08 10° NE
Cosmos 1190 Rocket 4.1 19:56:04 10° SSW 20:01:18 78° WNW 20:06:33 10° NNE
Cosmos 1763 Rocket 3.5 19:56:59 10° NNW 20:02:03 65° ENE 20:03:54 38° SE
SPOT 1/Viking Rocket 4.0 20:04:57 22° S 20:08:12 57° W 20:13:22 10° NNW
Cosmos 1862 3.5 20:06:43 10° N 20:10:36 50° ENE 20:10:58 48° E
NOSS 3-1 (C) 4.1 20:04:57 10° NW 20:12:14 77° NE 20:16:52 30° SE
Cosmos 540 Rocket 4.0 20:07:52 10° NNW 20:12:50 46° ENE 20:14:23 35° ESE
ATLAS 5 CENTAUR R/B 4.4 20:10:22 10° NW 20:13:38 18° N 20:17:16 10° NE
BREEZE-M DEB (TANK) 4.5 19:59:24 10° SW 20:14:47 50° SSE 20:17:20 26° E
FALCON 9 DEB 3.9 20:12:24 10° W 20:15:45 51° N 20:16:59 33° NE
Meteor 2-15 4.4 20:13:22 32° SSE 20:16:15 67° E 20:22:16 10° NNE
Cosmos 1500 Rocket 4.1 20:12:16 10° N 20:16:33 42° ENE 20:17:07 40° E
Cosmos 1766 Rocket 3.9 20:12:57 10° NNW 20:17:14 60° W 20:18:49 36° SSW
CARTOSAT-1 3.8 20:16:55 38° SSW 20:18:23 63° W 20:22:41 10° NNW
Cosmos 2344 4.4 20:11:31 10° WSW 20:18:45 53° NNW 20:27:02 10° NE
Cosmos 676 Rocket 3.9 20:15:17 16° SSW 20:19:26 87° WNW 20:24:40 10° NNE
Cosmos 1943 3.9 20:15:32 10° NNW 20:20:55 44° NE 20:22:59 31° E
USA 215 3.4 20:18:57 34° SSE 20:21:51 63° SW 20:28:22 10° WNW
Terra 1.7 20:20:42 49° SE 20:21:57 76° ENE 20:26:44 10° NNW
Okean 3 Rocket 4.2 20:18:31 10° NNW 20:22:57 54° W 20:24:41 33° SSW
JB-3 4.3 20:20:14 10° NNE 20:24:21 84° WNW 20:25:20 51° SSW
Cosmos 1553 Rocket 4.2 20:23:52 39° SE 20:25:30 49° E 20:31:21 10° NNE
Resurs 01 Rocket 3.9 20:23:22 10° SW 20:26:34 19° W 20:29:47 10° NW
SPOT 5 2.9 20:25:52 45° S 20:27:15 73° WSW 20:32:05 10° NNW
TSX-5 4.0 20:29:24 60° ESE 20:29:24 60° ESE 20:33:20 10° NE
ERS-1 Rocket 3.3 20:34:05 39° SSW 20:35:48 61° WSW 20:40:48 10° NNW
H-2A R/B 3.3 20:33:25 10° NNE 20:37:39 75° ESE 20:37:50 73° SE
Aureole 1 Rocket 3.7 20:40:23 49° ESE 20:40:31 49° ESE 20:45:01 10° NE
Cosmos 2237 Rocket 4.4 20:37:38 10° WNW 20:41:07 17° W 20:44:35 10° SW
Cosmos 1570 Rocket 4.3 20:40:41 10° NNW 20:45:55 57° ENE 20:46:56 48° ESE
Cosmos 1606 3.9 20:47:31 32° NE 20:47:31 32° NE 20:49:58 10° NNE
Cosmos 2263 Rocket 2.5 20:51:48 45° ESE 20:51:48 45° ESE 20:56:51 10° NE
Lacrosse 5 rocket 2.0 20:51:00 10° NW 20:55:15 54° NNE 20:56:01 47° ENE
SeaSat 1 3.6 20:51:40 10° NE 20:54:45 28° E 20:54:45 28° E
Cosmos 2082 4.0 20:53:32 15° SW 20:58:09 64° WNW 21:03:45 10° NNE
Cosmos 2227 Rocket 3.5 20:53:42 10° WSW 20:58:59 39° NW 21:04:18 10° NNE
Cosmos 921 Rocket 3.0 20:56:07 10° NNW 21:00:29 76° NE 21:00:29 76° NE
Cosmos 1741 Rocket 3.9 21:01:00 62° S 21:01:55 84° ESE 21:07:14 10° NNE
Cosmos 1842 Rocket 3.9 21:03:29 55° WSW 21:04:06 61° WNW 21:08:33 10° N
Cosmos 1850 Rocket 3.9 21:04:35 59° SSW 21:05:35 88° W 21:10:53 10° NNE
Cosmos 2297 Rocket 4.0 21:01:08 10° WSW 21:06:05 30° NW 21:11:04 10° NNE
Cosmos 1603 3.6 21:02:55 10° NNW 21:08:42 89° WSW 21:09:37 65° SSE
Spot 4 4.1 21:13:34 56° E 21:13:46 56° ENE 21:18:32 10° N
Cosmos 44 Rocket 4.0 21:16:06 15° WSW 21:20:18 56° NW 21:25:28 10° NE
USA 229 DEB 3.9 21:13:43 10° NW 21:20:59 73° SW 21:23:02 51° SSE
USA 229 3.9 21:13:49 10° NW 21:21:05 74° SW 21:23:08 51° SSE
Cosmos 2208 Rocket 3.9 21:19:21 10° NNW 21:24:44 89° WSW 21:25:06 78° SSE
Cosmos 1805 Rocket 3.7 21:21:01 10° NNW 21:24:58 68° NW 21:24:58 68° NW
Cosmos 1745 Rocket 4.1 21:20:19 10° NNW 21:26:37 72° W 21:28:01 54° SSW
Sich 1 3.3 21:23:22 10° N 21:27:04 66° N 21:27:04 66° N
Cosmos 2221 3.8 21:29:48 31° W 21:30:30 33° WNW 21:34:26 10° N
COSMOS 2455 3.7 21:26:06 10° WSW 21:31:55 47° NW 21:37:45 10° NNE
Cosmos 1709 Rocket 3.8 21:25:46 10° N 21:32:02 79° E 21:32:58 65° SE
Cosmos 841 Rocket 4.0 21:29:54 10° NNW 21:34:53 46° WSW 21:35:03 46° WSW
SL-16 R/B 4.1 21:33:55 10° WNW 21:37:27 17° W 21:38:53 16° WSW
Cosmos 1437 Rocket 3.9 21:39:34 38° NNE 21:39:34 38° NNE 21:42:02 10° NNE
NOSS 3-1 (A) 4.1 21:31:32 10° NW 21:38:54 66° SW 21:41:02 50° S
SL-4 R/B 3.1 21:35:32 10° W 21:38:43 44° W 21:38:43 44° W
S3M 4.1 21:40:09 51° SW 21:41:48 71° WNW 21:48:14 10° N
Cosmos 883 Rocket 4.3 21:42:34 67° SSE 21:43:25 82° E 21:49:45 10° N
Meteor 1-25 Rocket 4.1 21:38:12 10° NNW 21:43:57 83° W 21:44:28 74° SSW
Cosmos 1633 Rocket 3.5 21:42:27 10° N 21:46:02 56° NNE 21:46:02 56° NNE
Cosmos 1814 Rocket 4.4 21:43:36 10° NNW 21:48:41 51° WSW 21:48:41 51° WSW
SL-24 DEB 4.5 21:55:27 65° NW 21:55:27 65° NW 21:59:37 10° N
Cosmos 2227 4.3 21:54:22 59° WSW 21:55:24 73° WNW 22:01:11 10° NNE
Cosmos 1666 Rocket 4.0 21:52:07 10° NNW 21:55:52 60° NNW 21:55:52 60° NNW
Meteor 1-20 Rocket 4.3 21:52:11 10° NNW 21:57:55 63° W 21:58:20 61° WSW
ATLAS 5 CENTAUR R/B 3.8 21:55:17 10° NNW 21:59:49 30° NNE 22:05:03 10° E
Terra 4.0 21:59:35 15° W 22:00:17 16° W 22:03:10 10° NW
Cosmos 1943 4.0 21:59:45 10° NW 22:04:47 38° WSW 22:04:47 38° WSW
Cosmos 1328 Rocket 4.3 22:07:02 49° NE 22:07:02 49° NE 22:10:25 10° NNE
Meteor 1-26 Rocket 4.1 22:06:52 80° SSE 22:07:10 83° E 22:13:01 10° NNE
CZ-4C R/B 4.3 22:01:40 10° NW 22:07:31 33° NNE 22:14:22 10° E
NOSS 2-2 (C) 4.3 22:05:23 10° NW 22:10:30 76° NE 22:11:32 61° ESE
NOSS 2-2 (E) 4.3 22:06:41 10° NW 22:12:00 87° NE 22:12:50 69° SE
ALOS 2 3.2 22:14:52 53° NW 22:14:52 53° NW 22:18:22 10° NNW
Cosmos 1151 Rocket 3.8 22:21:57 51° NNW 22:21:57 51° NNW 22:25:19 10° N
Cosmos 1812 4.4 22:27:17 31° NNE 22:27:17 31° NNE 22:29:28 10° NNE
Meteor 1-11 Rocket 4.3 22:22:21 10° N 22:28:05 50° ENE 22:28:56 46° E
SeaSat 1 3.2 22:29:02 10° NNE 22:33:46 47° NW 22:34:31 44° WNW
Cosmos 1782 4.1 22:35:13 39° NNW 22:35:13 39° NNW 22:38:03 10° N
Lacrosse 5 rocket 3.6 22:30:13 10° WNW 22:31:37 19° WNW 22:31:37 19° WNW
Cosmos 2263 Rocket 3.3 22:33:26 27° W 22:35:36 38° NW 22:40:48 10° NNE
Cosmos 2154 Rocket 4.1 22:29:57 10° N 22:36:18 65° ENE 22:37:12 58° ESE
Cosmos 1503 Rocket 4.4 22:40:01 51° ENE 22:40:01 51° ENE 22:44:20 10° NNE
Cosmos 1536 4.4 22:37:32 10° N 22:40:29 32° NE 22:40:29 32° NE
Iridium 4 Rocket 4.0 22:41:38 51° WNW 22:41:38 51° WNW 22:46:47 10° N
Cosmos 2184 Rocket 3.9 22:41:17 10° NNW 22:47:38 78° W 22:48:10 72° SW
Cosmos 1844 Rocket 2.6 22:48:08 76° E 22:48:08 76° E 22:53:28 10° NNE
USA 281 3.2 22:47:12 57° SE 22:48:40 78° ENE 22:55:16 10° NNW
Cosmos 2327 Rocket 4.4 22:43:37 10° N 22:49:56 77° E 22:50:41 68° SE
Resurs 1-4 Rocket 4.2 22:51:36 10° NE 22:54:22 14° E 22:55:10 14° E
Meteor 1-10 Rocket 4.1 22:57:24 77° E 22:57:24 77° E 23:02:55 10° NNE
Cosmos 1869 Rocket 4.2 22:55:14 10° N 22:58:43 52° NNE 22:58:43 52° NNE
Cosmos 1354 Rocket 4.1 23:00:23 67° ENE 23:00:23 67° ENE 23:05:10 10° NNE
Cosmos 2341 Rocket 4.5 22:54:53 10° N 23:01:07 54° ENE 23:02:34 45° ESE
Cosmos 1340 Rocket 4.5 22:58:19 10° N 23:01:30 29° ENE 23:01:30 29° ENE
SJ 16-02 3.5 23:02:50 18° E 23:02:50 18° E 23:05:03 10° NE
Cosmos 1515 Rocket 4.3 23:02:54 50° NNW 23:02:54 50° NNW 23:06:31 10° N
Cosmos 968 Rocket 4.0 23:03:16 49° WNW 23:03:38 50° WNW 23:08:47 10° NNE
Thor Agena Rocket 3.6 22:59:03 10° N 23:04:04 68° WNW 23:04:04 68° WNW
Cosmos 2082 Rocket 3.8 23:01:46 10° NNW 23:06:43 30° NE 23:11:15 12° ESE
Cosmos 1295 Rocket 4.3 23:00:28 10° N 23:06:47 88° E 23:07:30 72° SSE
Cosmos 773 Rocket 4.0 23:04:16 10° NNW 23:09:21 82° NNW 23:09:21 82° NNW
Cosmos 1241 Rocket 4.4 23:09:02 70° S 23:09:46 80° SE 23:16:25 10° NE
Cosmos 1833 Rocket 3.3 23:05:34 10° NNW 23:11:05 51° NE 23:12:53 37° ESE
CZ-2D R/B 3.9 23:08:25 10° NE 23:12:28 21° E 23:13:28 20° ESE
Cosmos 1271 Rocket 4.0 23:14:04 39° NNE 23:14:04 39° NNE 23:16:41 10° NNE
Cosmos 2074 Rocket 4.3 23:09:07 10° NNW 23:15:07 49° W 23:15:33 48° WSW
BREEZE-M DEB (TANK) 4.0 23:05:06 10° W 23:19:25 85° S 23:21:35 35° ESE
Meteor 2-6 Rocket 4.3 23:20:37 56° W 23:20:45 57° WNW 23:26:06 10° N
USA 305 3.8 23:25:11 47° NE 23:25:11 47° NE 23:28:28 10° ENE
Cosmos 1707 Rocket 4.4 23:25:14 43° ENE 23:25:14 43° ENE 23:28:45 10° NNE
ADEOS II 4.5 23:23:08 10° ENE 23:25:10 12° E 23:27:12 10° ESE
Cosmos 962 Rocket 4.3 23:20:28 10° N 23:26:42 87° ENE 23:27:32 69° SSE
EO 1 Delta rocket 3.9 23:32:16 69° ENE 23:32:16 69° ENE 23:36:50 10° N
ATLAS 2AS CENTAUR R/B 4.2 23:27:04 10° NW 23:34:05 38° NNE 23:40:39 10° E
Cosmos 2278 Rocket 3.0 23:33:50 36° ESE 23:34:09 36° ESE 23:39:18 10° NE
Nadezhda 1 Rocket 4.2 23:40:22 52° WSW 23:41:25 58° WNW 23:47:43 10° N
Cosmos 1538 Rocket 3.9 23:36:35 10° NNW 23:42:01 87° WSW 23:42:11 84° S
USA 306 3.5 23:42:22 56° N 23:42:22 56° N 23:46:27 10° ENE
Helios 1B rocket 4.0 23:39:48 10° NE 23:43:07 27° E 23:43:07 27° E
ATLAS 5 CENTAUR R/B 2.2 23:39:36 10° NW 23:45:04 89° NE 23:46:48 50° SE
Cosmos 2218 Rocket 4.0 23:41:15 10° N 23:47:27 75° E 23:49:00 52° SSE
PSLV R/B 4.5 23:48:40 10° N 23:53:03 42° WNW 23:53:03 42° WNW
